Regional Weather Roundup
Issued by NWS

Home | Current Version | Previous Version | Graphics & Text | Print | Product List | Glossary On
Versions: 1 2 3 4 5 6 7 8 9 10 11 12 13 14 15 16 17 18 19 20 21 22 23 24 25 26 27 28 29 30 31 32 33 34 35 36 37 38 39 40 41 42 43 44 45 46 47 48 49 50
000
ASUS43 KTOP 242359
RWRKS

WEATHER ROUNDUP FOR KANSAS
NATIONAL WEATHER SERVICE GOODLAND KS
700 PM CDT THU JUL 24 2014

NOTE:  "FAIR" INDICATES FEW OR NO CLOUDS BELOW 12,000 FEET WITH NO
SIGNIFICANT WEATHER AND/OR OBSTRUCTIONS TO VISIBILITY.

KSZ001>006-013>018-027>032-041>047-250100-
NORTHWEST KANSAS

CITY           SKY/WX    TMP DP  RH WIND       PRES   REMARKS
GOODLAND       PTSUNNY   92  48  22 S12       29.88F
6HR MIN TEMP:  92; 6HR MAX TEMP: 100;

HAYS           SUNNY     79  66  65 S21G30    29.88F
HILL CITY      MOSUNNY   96  67  38 S21G30    29.84F HX 100
6HR MIN TEMP:  90; 6HR MAX TEMP: 100;

RUSSELL        SUNNY     91  70  49 S24G30    29.88F HX  96
6HR MIN TEMP:  88; 6HR MAX TEMP:  94;

$$

KSZ061>065-074>080-084>089-250100-
SOUTHWEST KANSAS

CITY           SKY/WX    TMP DP  RH WIND       PRES   REMARKS
DODGE CITY     SUNNY     95  63  34 S20G30    29.91F HX  96
6HR MIN TEMP:  90; 6HR MAX TEMP:  95;

ELKHART          N/A    N/A N/A N/A MISG        N/A
GARDEN CITY    SUNNY     93  56  28 S15       29.91F
6HR MIN TEMP:  93; 6HR MAX TEMP:  97;

GREAT BEND     SUNNY     91  70  49 S22G29    29.89F HX  97
LIBERAL        SUNNY     99  52  20 S20G26    29.95F HX  96
$$

KSZ066>073-081>083-090>101-250100-
SOUTHEAST KANSAS

CITY           SKY/WX    TMP DP  RH WIND       PRES   REMARKS
CHANUTE        SUNNY     85  66  53 SE14G22   29.98F
6HR MIN TEMP:  82; 6HR MAX TEMP:  87;

COFFEYVILLE    MOSUNNY   87  70  56 S8        29.97F
6HR MIN TEMP:  82; 6HR MAX TEMP:  89;

HUTCHINSON     SUNNY     92  67  43 S18G29    29.93F HX  95
6HR MIN TEMP:  88; 6HR MAX TEMP:  94;

MEDICINE LODGE   N/A     94  70  45 SE12G22   29.91F HX 100
NEWTON         SUNNY     88  64  45 S18       29.99S
PARSONS        SUNNY     86  66  51 SE6       29.99F
6HR MIN TEMP:  82; 6HR MAX TEMP:  88;

WICHITA INTL   MOSUNNY   88  69  53 S20       29.94F
6HR MIN TEMP:  86; 6HR MAX TEMP:  90;

WICHITA JABRA  SUNNY     89  68  49 S17       29.94F
6HR MIN TEMP:  85; 6HR MAX TEMP:  91;

WINFIELD         N/A     87  71  58 SE12      29.97F
6HR MIN TEMP:  86; 6HR MAX TEMP:  90;

$$

KSZ007>012-019>026-033>040-048>060-102>105-250100-
NORTHEAST KANSAS

CITY           SKY/WX    TMP DP  RH WIND       PRES   REMARKS
CONCORDIA      SUNNY     89  67  47 S18G28    29.90F
6HR MIN TEMP:  84; 6HR MAX TEMP:  90;

EMPORIA        SUNNY     85  66  53 S13       29.97F
6HR MIN TEMP:  82; 6HR MAX TEMP:  87;

LAWRENCE       SUNNY     82  62  50 SE9       30.00R
6HR MIN TEMP:  82; 6HR MAX TEMP:  88;

MANHATTAN      SUNNY     89  65  44 S16       29.94F
6HR MIN TEMP:  87; 6HR MAX TEMP:  92;

OLATHE IND     SUNNY     82  58  43 SE10      30.03R
6HR MIN TEMP:  80; 6HR MAX TEMP:  85;

OLATHE EXE     SUNNY     80  57  45 SE12      30.02R
6HR MIN TEMP:  78; 6HR MAX TEMP:  83;

SALINA         SUNNY     93  67  42 S16G28    29.91F HX  96
6HR MIN TEMP:  90; 6HR MAX TEMP:  96;

TOPEKA BILLARD SUNNY     87  62  43 SE14      29.99R
6HR MIN TEMP:  84; 6HR MAX TEMP:  89;

TOPEKA FORBES  SUNNY     87  61  41 SE10      29.99R
6HR MIN TEMP:  83; 6HR MAX TEMP:  89;

$$



USA.gov is the U.S. government's official web portal to all federal, state and local government web resources and services.